Skip Page Navigation
NASA JPL Caltech
NASA Logo - Jet Propulsion Laboratory + View the NASA Portal
+ Center for Near-Earth Object Studies
JPL Home Earth Solar System Stars & Galaxies Technology
JPL Solar System Dynamics
BODIES ORBITS EPHEMERIDES TOOLS PHYSICAL DATA DISCOVERY FAQ SITE MAP
IMPORTANT: The SSD Announcement email list is now available. Major changes are coming in the near future, including possible hostname and/or URL changes. To be notified of such changes, subscribe to this email list.

Please visit this page for more details.


JPL Small-Body Database Browser
Search: [ help ]  
214127 (2004 XE96)
Classification: Main-belt Asteroid          SPK-ID: 2214127
Ephemeris | Orbit Diagram | Orbital Elements | Mission Design | Physical Parameters | Discovery Circumstances | Close-Approach Data ]

[ show orbit diagram ]
Orbital Elements at Epoch 2458600.5 (2019-Apr-27.0) TDB
Reference: JPL 7 (heliocentric ecliptic J2000)
 Element Value Uncertainty (1-sigma)   Units 
e .167358983075206 4.5751e-08  
a 2.269375032152717 1.5835e-08 au
q 1.889574734555375 1.0518e-07 au
i 1.898968931914955 6.5723e-06 deg
node 340.3577328618113 0.00014638 deg
peri 124.4593206814074 0.00014896 deg
M 66.43590151569209 2.6363e-05 deg
tp 2458370.059840397183
(2018-Sep-08.55984040)
9.0138e-05 TDB
period 1248.699205766318
3.42
1.3069e-05
3.578e-08
d
yr
n .2883000151978718 3.0174e-09 deg/d
Q 2.649175329750058 1.8485e-08 au
  Orbit Determination Parameters
   # obs. used (total)      170  
   data-arc span      6795 days (18.60 yr)  
   first obs. used      2000-08-25  
   last obs. used      2019-04-03  
   planetary ephem.      DE431  
   SB-pert. ephem.      SB431-N16  
   condition code      0  
   norm. resid. RMS      .62075  
   source      ORB  
   producer      Otto Matic  
   solution date      2019-Jul-13 22:11:49  

Additional Information
 Earth MOID = .907378 au 
 Jupiter MOID = 2.48055 au 
 T_jup = 3.594 
[ show covariance matrix ]

Ephemeris | Orbit Diagram | Orbital Elements | Mission Design | Physical Parameters | Discovery Circumstances | Close-Approach Data ]

Physical Parameter Table
Parameter Symbol Value Units Sigma Reference Notes
absolute magnitude H 17.7   n/a MPO418147  

214127 (2004 XE96)          Discovered 2004-Dec-11 by Spacewatch at Kitt Peak
Reference: 20090509/Numbers.arcLast Updated: 2009-05-11

[ show close-approach data ]
Ephemeris | Orbit Diagram | Orbital Elements | Mission Design | Physical Parameters | Discovery Circumstances | Close-Approach Data ]
ABOUT SSD CREDITS/AWARDS PRIVACY/COPYRIGHT GLOSSARY LINKS
FirstGov 2019-Dec-05 15:12 UT
(server date/time)  
NASA Home Page
Site Manager:   Ryan S. Park
Webmaster  Alan B. Chamberlin